This is the latest recevied weather packets stored in our database for station/object N3WMC. If no packets are shown the sender has not sent any weather packets the latest 10 day(s).
| Time | Temp. | Humidity | Pressure | Rain* | Wind** | Luminosity | Snow |
|---|---|---|---|---|---|---|---|
| 1778274691 | 12.78° C | 74% | 1012.3 hPa | 0 mm | - | 34 W/m² | - |
| 1778274388 | 12.78° C | 74% | 1012 hPa | 0 mm | - | 55 W/m² | - |
| 1778274086 | 12.78° C | 75% | 1012.1 hPa | 0 mm | - | 51 W/m² | - |
| 1778273783 | 12.78° C | 75% | 1011.9 hPa | 0 mm | - | 77 W/m² | - |
| 1778273479 | 12.78° C | 76% | 1012.4 hPa | 0 mm | - | 46 W/m² | - |
| 1778273175 | 12.78° C | 77% | 1012.2 hPa | 0 mm | - | 94 W/m² | - |
| 1778272871 | 12.78° C | 77% | 1012.5 hPa | 0 mm | - | 64 W/m² | - |
| 1778272568 | 12.22° C | 78% | 1012.3 hPa | 0 mm | - | 112 W/m² | - |
| 1778272264 | 12.22° C | 77% | 1012.5 hPa | 0 mm | - | 71 W/m² | - |
| 1778271960 | 12.22° C | 77% | 1012.5 hPa | 0 mm | - | 72 W/m² | - |
| 1778271658 | 12.22° C | 76% | 1012.6 hPa | 0 mm | - | 47 W/m² | - |
| 1778271354 | 12.22° C | 75% | 1012.6 hPa | 0 mm | - | 48 W/m² | - |
| 1778271051 | 12.22° C | 75% | 1013.1 hPa | 0 mm | - | 61 W/m² | - |
| 1778270748 | 12.22° C | 75% | 1012.9 hPa | 0 mm | - | 59 W/m² | - |
| 1778270444 | 12.78° C | 74% | 1013.4 hPa | 0 mm | - | 60 W/m² | - |
| 1778270141 | 12.78° C | 73% | 1013.4 hPa | 0 mm | - | 59 W/m² | - |
| 1778269837 | 12.78° C | 73% | 1013.5 hPa | 0 mm | - | 54 W/m² | - |
| 1778269534 | 12.78° C | 72% | 1013.3 hPa | 1.27 mm | - | 57 W/m² | - |
| 1778269231 | 12.78° C | 70% | 1013.3 hPa | 1.27 mm | - | 59 W/m² | - |
| 1778268927 | 13.33° C | 67% | 1013.5 hPa | 0 mm | - | 64 W/m² | - |
| 1778268624 | 13.89° C | 64% | 1013.5 hPa | 0 mm | - | 65 W/m² | - |
| 1778268321 | 13.89° C | 64% | 1013.2 hPa | 0 mm | - | 54 W/m² | - |
| 1778268018 | 13.89° C | 63% | 1013 hPa | 0 mm | - | 48 W/m² | - |
| 1778267715 | 13.89° C | 65% | 1013 hPa | 0 mm | - | 53 W/m² | - |
| 1778267411 | 13.89° C | 65% | 1013.3 hPa | 0 mm | - | 67 W/m² | - |
* Rain latest hour (hover to see other rain measurements)
** Current wind speed in m/s (hover to see current wind gust speed)